Погода в Ниамее

Нигер     13˚31′28″N   2˚06′31″E
темп.,
°C
ветер,
м/с
пор.,
м/с
влажн.,
%
обл.,
%
осадки,
мм/ч
давл.,
гПа
погр.,
м
17 января, вс
вс1701:00+24˚св341565 0.0 101277
04:00+23˚всв471515 0.0 1010150
07:00+21˚св351741 0.0 101293
10:00+26˚всв5614100 0.0 1013329
13:00+32˚всв5610100 0.0 10121460
16:00+34˚всв569100 0.0 10082117
19:00+29˚в3612100 0.0 1009327
22:00+25˚св341545 0.0 101272
18 января, пн
пн1801:00+25˚ссв351572 0.0 101190
04:00+23˚ссв5715100 0.0 1011161
07:00+21˚св5915100 0.0 1012197
10:00+26˚в71015100 0.0 1014594
13:00+32˚в7811100 0.0 10121028
16:00+34˚в679100 0.0 10091963
19:00+30˚в4612100 0.0 1010326
22:00+26˚всв471433 0.0 1012153
19 января, вт
вт1901:00+24˚всв351617 0.0 1013106
04:00+22˚св58170 0.0 1013170
07:00+20˚всв611190 0.0 1014251
10:00+24˚в711140 0.0 1015493
13:00+32˚в79100 0.0 10131174
16:00+34˚в6790 0.0 10101825
19:00+29˚всв57110 0.0 1011554
22:00+26˚всв47130 0.0 1013175
20 января, ср
ср2001:00+24˚св58150 0.0 1014190
04:00+21˚св510160 0.0 1013231
07:00+19˚всв510180 0.0 1014221
10:00+24˚всв710150 0.0 1016535
13:00+31˚в78100 0.0 10141074
16:00+33˚всв6780 0.0 10101718
19:00+29˚всв57110 0.0 1011614
22:00+26˚всв59124 0.0 1014227
21 января, чт
чт2101:00+23˚всв58142 0.0 1014174
04:00+21˚всв510170 0.0 1014226
07:00+19˚всв510190 0.0 1014238
10:00+24˚в711150 0.0 1016595
13:00+30˚в78100 0.0 10141154
16:00+33˚всв6770 0.0 10111640
19:00+28˚св5790 0.0 1012543
22:00+25˚св57110 0.0 1014139